Location: Beauvais
(49.4333°N, 2.0833°E)
Time: 17:45:19
(UTC+00:00)

Daily predictions for brighter satellites

Satellite Brightness Start Highest point End
(mag) Time Altitude Azimuth Time Altitude Azimuth Time Altitude Azimuth
Cosmos 2219 3.3 20:12:39 10° NNW 20:18:21 87° WSW 20:23:57 10° SSE
ATLAS 2AS CENTAUR R/B 3.9 20:15:52 10° SSE 20:21:58 26° ESE 20:27:57 10° ENE
Cosmos 1515 4.1 20:18:26 10° SSE 20:22:01 43° E 20:25:37 10° NNE
Cosmos 1328 Rocket 3.5 20:19:40 10° S 20:23:58 86° E 20:28:21 10° N
NOSS 3-4 (A) 3.4 20:20:26 10° SSW 20:26:03 61° SE 20:32:07 10° NE
NOSS 3-4 (C) 3.4 20:20:30 10° SSW 20:26:07 60° SE 20:32:13 10° NE
Terra 3.2 20:22:23 10° ESE 20:26:15 25° ENE 20:30:08 10° N
Cosmos 2082 3.9 20:20:57 10° NNW 20:26:34 62° ENE 20:32:07 10° SE
ARGOS Delta rocket 4.2 20:22:19 10° NNE 20:27:50 73° E 20:33:16 10° S
IRAS Rocket 4.3 20:22:46 10° NNE 20:28:24 69° ESE 20:34:01 10° S
Aureole 1 Rocket 2.7 20:29:29 10° S 20:32:30 37° ESE 20:35:19 10° NE
Cosmos 2263 Rocket 3.0 20:29:25 10° NNW 20:34:42 40° NE 20:39:55 10° ESE
Cosmos 1743 2.7 20:32:19 10° N 20:36:07 73° E 20:39:53 10° SSE
ISS -3.3 20:33:53 10° WNW 20:37:14 64° N 20:40:34 10° E
USA 267 4.3 20:31:34 10° ENE 20:37:46 46° N 20:43:56 10° WNW
Cosmos 1340 2.8 20:34:13 10° S 20:37:51 54° E 20:41:32 10° NNE
EXPRESS MD2 4.0 20:35:35 10° WNW 20:41:47 51° SSW 20:44:49 12° SE
Cosmos 1933 Rocket 3.6 20:39:26 10° N 20:43:56 77° E 20:48:23 10° SSE
Cosmos 2034 Rocket 4.3 20:39:00 10° SSE 20:45:02 51° E 20:51:09 10° NNE
Cosmos 1656 4.4 20:39:33 10° SW 20:45:02 58° WNW 20:50:29 10° NNE
Cosmos 1503 Rocket 4.4 20:40:20 10° S 20:45:19 45° ESE 20:50:23 10° NE
SPOT 1/Viking Rocket 4.0 20:43:56 10° S 20:49:03 61° W 20:54:11 10° NNW
Cosmos 2227 Rocket 3.0 20:43:40 10° NW 20:49:07 48° WSW 20:54:32 10° S
ATLAS 3B R/B 3.7 20:42:55 10° NW 20:49:48 44° NNE 20:56:59 10° ESE
Cosmos 1536 3.2 20:47:16 10° NNW 20:51:16 66° W 20:55:15 10° S
Cosmos 389 Rocket 2.5 20:47:52 10° NNW 20:51:23 79° WSW 20:54:53 10° S
RESURS DK-1 3.6 20:50:49 12° SSE 20:53:39 22° ESE 20:56:51 10° NE
Cosmos 405 4.4 20:51:07 10° NNW 20:54:14 33° W 20:57:20 10° SSW
ATLAS CENTAUR R/B 4.2 20:51:43 10° NNW 20:54:54 17° NNE 20:58:02 10° ENE
ERS-1 Rocket 3.2 20:53:05 12° SSE 20:57:37 58° ENE 21:02:34 10° N
Okean 1 3.7 20:54:11 10° SSE 20:57:56 46° E 21:01:48 10° NNE
Cosmos 2344 3.5 20:51:05 10° SSW 20:58:24 59° ESE 21:05:55 10° NE
Meteor 1-19 Rocket 4.4 20:55:55 10° S 21:01:11 52° E 21:06:25 10° NNE
Cosmos 1980 Rocket 2.3 20:55:53 10° S 21:01:20 54° ESE 21:06:51 10° NE
BREEZE M DEB (TANK) 3.6 20:58:39 10° W 21:02:23 66° SSW 21:15:35 10° ESE
SJ 16-02 1.8 20:59:30 10° S 21:03:35 40° ESE 21:07:41 10° NE
SL-4 R/B 3.1 21:01:37 10° WNW 21:05:47 36° SW 21:08:46 16° SSE
Cosmos 2369 3.7 21:00:33 10° SSW 21:06:08 67° ESE 21:11:46 10° NNE
Resurs 01 Rocket 3.2 21:02:25 10° SSW 21:06:20 31° W 21:10:17 10° NNW
Cosmos 2322 Rocket 4.0 21:07:18 11° ESE 21:09:08 13° E 21:11:41 10° ENE
Cosmos 1844 Rocket 4.4 21:10:21 10° N 21:14:49 24° NE 21:19:14 10° E
Cosmos 44 Rocket 3.7 21:10:54 10° NNW 21:15:33 53° NE 21:19:17 15° ESE
Helios 1A Rocket 3.1 21:15:01 13° S 21:18:29 66° WSW 21:22:28 10° NNW
Cosmos 1975 3.2 21:16:27 10° N 21:20:26 49° ENE 21:22:59 20° SE
Ariane Rocket 4.4 21:16:29 10° SSW 21:21:05 34° W 21:25:43 10° NNW
Cosmos 1697 Rocket 3.2 21:15:31 10° SW 21:21:08 63° WNW 21:26:47 10° NNE
BREEZE-M DEB (TANK) 1.6 21:22:17 10° W 21:24:30 64° SSW 21:27:06 16° ESE
Cosmos 1378 3.5 21:22:33 20° SSE 21:24:43 45° E 21:28:15 10° NNE
Cosmos 2297 Rocket 4.4 21:22:00 10° WNW 21:25:41 18° W 21:29:23 10° SW
Cosmos 1184 Rocket 3.9 21:23:05 10° SW 21:25:57 39° WNW 21:28:50 10° N
Cosmos 2228 Rocket 3.1 21:23:19 14° S 21:27:16 70° E 21:31:49 10° NNE
SL-24 R/B - RUBIN 2 3.9 21:23:13 10° NW 21:27:33 59° NE 21:30:47 18° ESE
Cosmos 2292 Rocket 2.7 21:25:09 10° N 21:28:17 65° ENE 21:29:43 27° SSE
CZ-4B R/B 4.2 21:26:45 10° NNW 21:28:55 17° WNW 21:31:03 10° WSW
ASTRO F (AKARI) 4.2 21:27:27 22° S 21:29:15 76° WSW 21:32:25 10° NNW
Cosmos 2227 4.4 21:23:42 10° NNW 21:29:27 65° ENE 21:33:39 19° SE
Cosmos 1869 Rocket 3.8 21:29:05 10° NNW 21:33:33 70° W 21:37:00 17° S
NOSS 2-1 (C) 4.5 21:34:20 18° ESE 21:34:20 18° ESE 21:36:04 10° ENE
Cosmos 921 Rocket 4.0 21:30:57 10° NNW 21:35:15 44° WSW 21:38:44 15° S
Cosmos 1092 Rocket 4.0 21:35:18 10° N 21:41:32 86° W 21:46:18 18° S
USA 215 4.0 21:37:36 10° ENE 21:43:11 29° SE 21:47:17 16° S
Meteor 1-18 Rocket 4.2 21:38:43 14° S 21:43:46 78° E 21:49:25 10° NNE
SL-16 R/B 2.9 21:43:30 21° SSE 21:46:27 35° ESE 21:51:33 10° NE
ARIANE 5 R/B 2.7 21:45:15 22° S 21:48:10 78° WSW 21:52:44 10° NNW
Cosmos 1634 Rocket 4.0 21:44:51 16° S 21:49:51 74° E 21:56:02 10° NNE
Cosmos 1354 Rocket 4.4 21:46:02 10° SSW 21:51:16 68° WNW 21:56:36 10° NNE
SPOT 5 3.9 21:48:32 14° S 21:52:55 46° W 21:57:53 10° NNW
Cosmos 1777 Rocket 3.9 21:48:48 10° SSW 21:54:01 85° ESE 21:59:18 10° NNE
Cosmos 482 Debris 4.4 21:51:03 10° WNW 21:54:07 50° SSW 21:56:05 27° SE
CZ-2C R/B 4.1 21:49:33 10° N 21:54:18 70° WNW 21:58:54 11° SSW
Spot 2 Rocket 4.4 21:50:44 13° SSW 21:54:51 41° W 21:59:38 10° NNW
CZ-4C R/B 4.2 21:53:39 10° NW 21:59:38 35° NNE 22:06:42 10° E
Cosmos 1707 Rocket 3.5 21:58:26 22° S 22:01:13 85° E 22:05:40 10° N
Terra 2.5 22:00:30 19° SSW 22:03:45 48° W 22:08:23 10° NNW
Cosmos 2278 3.8 21:59:58 10° SSW 22:05:39 83° WNW 22:11:23 10° NNE
Cosmos 2026 Rocket 4.3 22:03:21 10° NNW 22:09:25 64° W 22:13:55 19° S
Cosmos 1346 Rocket 2.7 22:08:38 27° SSW 22:10:47 89° WNW 22:14:50 10° NNE
ATLAS 2AS CENTAUR R/B 3.0 22:04:21 10° SW 22:12:11 90° SE 22:19:45 10° NE
ISS -3.5 22:10:44 10° WNW 22:13:58 46° SSW 22:14:22 43° S
Cosmos 2360 Rocket 3.2 22:12:46 24° SE 22:14:27 28° ESE 22:19:10 10° NE
Meteor 2-15 Rocket 4.4 22:11:04 23° S 22:14:57 73° E 22:21:02 10° NNE
USA 81 4.2 22:11:17 20° SSW 22:15:01 75° W 22:20:20 10° N
Meteor 2-10 4.4 22:11:46 10° N 22:16:59 53° ENE 22:19:35 27° SE
Cosmos 2263 Rocket 3.0 22:13:27 10° NW 22:18:38 40° WSW 22:21:48 21° SSW
Meteor 1-4 Rocket 2.5 22:15:31 10° N 22:18:59 65° ENE 22:19:55 43° SE
USA 267 3.6 22:13:48 10° ESE 22:20:17 67° NNE 22:26:47 10° WNW
ERS-2 4.1 22:18:22 10° NE 22:20:33 15° E 22:20:37 15° E
SAR-Lupe-4 3.8 22:19:14 10° N 22:22:49 65° WNW 22:24:36 27° SSW
Cosmos 1441 Rocket 3.1 22:22:39 41° SSE 22:23:46 67° E 22:27:29 10° NNE
Cosmos 1733 Rocket 3.6 22:25:52 10° NNW 22:30:12 52° W 22:32:21 27° SSW
RESURS DK-1 3.4 22:27:24 10° SW 22:31:22 45° NW 22:35:22 10° NNE
Cosmos 1538 Rocket 4.4 22:27:08 10° NNW 22:32:15 53° WSW 22:34:46 28° S
ATLAS CENTAUR R/B 2.7 22:30:15 10° NNW 22:34:56 42° NE 22:38:21 16° ESE
Cosmos 1066 Rocket 4.2 22:32:08 28° S 22:35:19 76° E 22:41:00 10° NNE
Cosmos 1726 2.7 22:32:15 10° N 22:35:47 43° ENE 22:36:41 36° ESE
Cosmos 2242 Rocket 4.5 22:37:36 30° SE 22:38:56 37° E 22:43:07 10° NNE
Cosmos 1908 Rocket 3.5 22:35:32 10° N 22:39:53 75° ENE 22:41:24 40° SSE
ATLAS 3B R/B 3.0 22:33:42 10° NW 22:41:00 68° SW 22:45:21 27° SSE
ALOS 2 3.3 22:40:21 29° ESE 22:42:08 45° ENE 22:46:19 10° N
SJ 16-02 3.3 22:38:33 10° WSW 22:42:15 26° WNW 22:45:59 10° N
NOSS 2-1 (E) 2.6 22:42:30 51° SW 22:43:13 87° SE 22:46:31 10° NE
Iridium 2 4.3 22:39:57 10° NNW 22:43:34 47° W 22:44:51 32° SW
Cosmos 1862 Rocket 4.0 22:41:16 25° SSW 22:43:43 58° WNW 22:48:10 10° N
Cosmos 2266 Rocket 4.0 22:38:24 10° N 22:44:43 79° E 22:47:56 31° SSE
Cosmos 1980 Rocket 3.9 22:40:34 10° WSW 22:45:37 33° NW 22:50:43 10° NNE
NOSS 3-1 (C) 4.4 22:40:41 10° NW 22:47:44 62° NE 22:55:50 11° ESE
Cosmos 923 Rocket 4.0 22:45:19 10° NNW 22:50:40 80° WSW 22:53:00 35° SSE
Cosmos 2333 Rocket 3.1 22:50:06 27° SE 22:51:35 31° ESE 22:56:29 10° NE
Cosmos 2322 Rocket 2.1 22:49:04 27° SSW 22:52:13 78° ESE 22:57:51 10° NNE
Cosmos 1805 3.6 22:48:24 10° NNW 22:52:13 54° W 22:53:20 39° SSW
BREEZE-M DEB (TANK) 2.4 22:51:38 10° W 23:00:30 - ESE 22:53:18 50° W
Cosmos 2279 Rocket 4.4 22:50:48 20° SSW 22:55:10 60° WNW 23:01:21 10° N
Cosmos 44 Rocket 4.5 22:52:52 10° WNW 22:56:48 26° WSW 22:57:58 24° SW
MINOTAUR IV R/B 4.5 22:57:24 35° SSW 22:59:18 89° ESE 23:03:49 10° NNE
Cosmos 1844 Rocket 2.6 22:53:46 10° NNW 22:59:25 82° WSW 23:01:53 35° SSE
Cosmos 1937 Rocket 3.9 22:59:10 35° SSE 23:00:52 49° ESE 23:05:57 10° NNE
Cosmos 1356 4.0 23:03:40 40° WSW 23:04:23 49° WNW 23:07:37 10° N
Cosmos 1766 3.2 23:00:30 10° NNW 23:04:26 76° W 23:05:21 50° S
Gblst 52 Del rocket 4.4 23:01:22 15° SW 23:06:32 52° SSE 23:12:06 10° ENE
Cosmos 2112 Rocket 4.0 23:05:58 10° NNW 23:11:20 82° WSW 23:13:28 37° SSE
Cosmos 1818 3.5 23:07:00 10° NW 23:12:31 88° SW 23:15:01 33° SE
Cosmos 1680 Rocket 3.6 23:07:45 10° NNW 23:13:03 70° WSW 23:15:04 38° S
Cosmos 1733 4.5 23:11:51 10° NNW 23:15:10 29° W 23:16:07 26° WSW
Cosmos 1844 3.7 23:10:50 10° NNW 23:16:39 73° WSW 23:19:08 36° S
Cosmos 2219 Rocket 2.9 23:17:40 31° SE 23:19:15 38° ESE 23:24:22 10° NE
NOSS 2-1 (D) 4.2 23:17:43 16° WSW 23:19:54 37° NW 23:23:03 10° NNE
Cosmos 990 Rocket 4.3 23:18:03 24° SW 23:21:13 63° WNW 23:26:26 10° NNE
NOSS 2-1 (C) 4.4 23:21:29 15° WSW 23:23:48 34° NW 23:26:55 10° NNE
USA 215 3.2 23:20:12 10° ENE 23:26:48 83° SSE 23:33:23 10° SW
Cosmos 2237 4.5 23:23:52 21° SW 23:27:45 66° WNW 23:33:29 10° NNE
Cosmos 1898 Rocket 3.6 23:25:28 31° SSW 23:28:07 79° WNW 23:33:29 10° NNE
Cosmos 1707 3.2 23:29:22 42° ESE 23:29:55 46° E 23:33:39 10° NNE
SL-16 R/B 3.1 23:25:18 11° SW 23:30:26 46° NW 23:35:55 10° NNE
Cosmos 858 Rocket 4.4 23:28:58 38° S 23:31:00 77° ESE 23:36:19 10° NNE
Okean 1-7 3.7 23:30:15 31° SW 23:31:56 49° WNW 23:36:13 10° N
Cosmos 1238 Rocket 3.9 23:30:58 10° NNE 23:33:24 23° ENE 23:33:40 23° E
Iridium 4 Rocket 4.1 23:34:17 10° NNW 23:38:28 39° W 23:40:16 28° SW
Nadezhda 2 Rocket 4.5 23:33:43 10° N 23:39:56 78° E 23:42:51 33° SSE
Cosmos 1470 2.7 23:36:50 10° NNW 23:40:43 74° W 23:41:21 58° SSW
Cosmos 1553 Rocket 4.4 23:38:26 30° SSE 23:41:10 50° E 23:47:07 10° NNE
COSMOS 2428 3.3 23:42:41 33° SSE 23:44:30 42° ESE 23:49:49 10° NE
Cosmos 2221 Rocket 4.2 23:45:00 35° SE 23:46:08 43° E 23:50:20 10° NNE
Cosmos 2237 Rocket 4.0 23:44:21 15° ESE 23:46:12 18° E 23:49:51 10° ENE
ADEOS Rocket 2.8 23:45:12 36° S 23:47:35 74° WSW 23:53:35 10° NNW
KORONAS-FOTON 4.3 23:47:32 42° ESE 23:48:02 45° E 23:51:41 10° NNE
CZ-4C R/B 3.0 23:42:02 10° NW 23:49:08 83° NE 23:56:33 14° SE
Okean 3 4.3 23:47:44 30° WSW 23:49:12 42° WNW 23:53:16 10° N
Meteor 1-21 4.3 23:49:35 36° S 23:52:02 70° E 23:57:50 10° NNE
SL-08 ROCKET BODY 4.3 23:46:43 10° NNW 23:52:38 78° W 23:55:09 36° S
Cosmos 1437 Rocket 4.2 23:49:40 10° N 23:53:01 29° ENE 23:54:23 23° ESE
ERS-2 2.8 23:50:41 10° N 23:54:10 47° WNW 23:55:01 38° WSW
H-2A R/B 4.5 23:51:03 10° N 23:54:52 38° WNW 23:56:29 27° WSW
Cosmos 1953 3.8 23:51:41 10° N 23:55:18 30° ENE 23:56:54 22° ESE
